Вернуться в каталог

Sitro-TD-4

АктивенСвязьSSO
NORAD 67265·PAYLOAD·🇷🇺 Russia

Запущен Dec 28, 2025 с Vostochny Cosmodrome

Loading…

Ближайшие Пролёты (ближайшие 24 часа)

TLE

СвежийSource: Space-Track

Эпоха: Sep 14, 2026, 03:41 UTC

1 67265U 25313T   26257.15358259  .00006658  00000-0  27194-3 0  9991
2 67265  97.3860 330.5549 0015121  55.8861 304.3809 15.24612092 39509

Отслеживайте Sitro-TD-4 в реальном времени с AllMySat

Download on the App Store